Weather Roundup
Issued by NWS Springfield, MO

Home | Current Version | Previous Version | Text Only | Print | Product List | Glossary On
Versions: 1 2 3 4 5 6 7 8 9 10 11 12 13 14 15 16 17 18 19 20 21 22 23 24 25 26 27 28 29 30 31 32 33 34 35 36 37 38 39 40 41 42 43 44 45 46 47 48 49 50
000
NZUS99 KSGF 240707
HRRSGF

HOURLY WEATHER
NATIONAL WEATHER SERVICE SPRINGFIELD MO
100 AM CST TUE JAN 24 2017

......SGF CWA......

CITY           SKY/WX    TMP DP  RH WIND       PRES   REMARKS
SPRINGFIELD    CLEAR     33  29  85 SE8       29.80F WCI  26
JOPLIN         CLEAR     41  33  73 SE9       29.77F
WEST PLAINS    CLOUDY    30  27  88 CALM      29.86S
ROLLA          CLEAR     29  28  96 CALM      29.83S FOG
OSAGE BEACH    CLEAR     28  27  96 CALM      29.86F FOG
BRANSON        CLEAR     39  32  75 SE9       29.82F WCI  33

......SURROUNDING SGF CWA......

CITY           SKY/WX    TMP DP  RH WIND       PRES   REMARKS
CHANUTE        CLEAR     39  32  76 E13       29.73F WCI  31
PARSONS        CLEAR     43  33  68 SE7       29.73F
COFFEYVILLE    CLEAR     40  33  76 SE6       29.73F
EMPORIA        CLEAR     33  32  96 E8        29.71F WCI  26
GROVE OK       CLEAR     37  34  87 CALM      29.78F
ROGERS AR      CLEAR     38  35  89 SE10      29.79F WCI  31
SILOAM SPRINGS   N/A    N/A N/A N/A MISG        N/A
HARRISON AR    CLEAR     33  31  92 SE8       29.82F WCI  26
NEAR YELLVILLE CLEAR     34  28  80 CALM      29.83F

......KANSAS AND MISSOURI......

CITY           SKY/WX    TMP DP  RH WIND       PRES   REMARKS
KANSAS CTY INT CLOUDY    31  28  89 SE9       29.80F WCI  23
DOWNTOWN KC    CLEAR     31  29  92 E5        29.81F WCI  26
COLUMBIA       CLOUDY    34  31  88 CALM      29.86S
SEDALIA        CLEAR     30  28  92 SE6       29.85F FOG     WCI  24
ST JOSEPH      CLOUDY    30  29  96 E5        29.82F WCI  25
ST LOUIS       CLOUDY    40  31  70 W6        29.87F
SPIRIT OF STL  CLOUDY    40  33  76 N3        29.86F
KIRKSVILLE     CLOUDY    31  29  92 NE7       29.85F WCI  24
WICHITA        CLEAR     43  31  62 SE14      29.61F
TOPEKA         CLOUDY    32  28  85 E7        29.77F FOG     WCI  26
OLATHE         CLEAR     31  30  96 SE6       29.79F WCI  25

......TENNESSEE......

CITY           SKY/WX    TMP DP  RH WIND       PRES   REMARKS
MEMPHIS        CLEAR     38  37  97 CALM      29.86S
NASHVILLE      CLOUDY    42  34  73 NW6       29.83F

......ARKANSAS.......

CITY           SKY/WX    TMP DP  RH WIND       PRES   REMARKS
FAYETTEVILLE   CLEAR     30  30 100 CALM      29.79F
FT SMITH       PTCLDY    40  36  86 NE3       29.80F
LITTLE ROCK    CLEAR     37  37 100 CALM      29.88S

......OKLAHOMA.......

CITY           SKY/WX    TMP DP  RH WIND       PRES   REMARKS
TULSA          PTCLDY    44  33  65 SE12      29.71F
PONCA CITY     PTCLDY    45  30  55 SE15      29.61F
MCALESTER      CLOUDY    53  30  41 S7        29.74F
OKLAHOMA CITY  PTCLDY    46  34  62 S10       29.64F

......IOWA............

CITY           SKY/WX    TMP DP  RH WIND       PRES   REMARKS
DES MOINES     CLOUDY    33  27  78 VRB5      29.85F WCI  29
QUAD CITIES    CLOUDY    35  31  85 W5        29.86S WCI  31

......ILLINOIS........

CITY           SKY/WX    TMP DP  RH WIND       PRES   REMARKS
QUINCY         CLOUDY    34  30  85 NW3       29.87S
CHICAGO        CLOUDY    38  34  85 NW8       29.80S WCI  32



USA.gov is the U.S. government's official web portal to all federal, state and local government web resources and services.